Regional Weather Roundup
Issued by NWS

Home | Current Version | Previous Version | Graphics & Text | Print | Product List | Glossary On
Versions: 1 2 3 4 5 6 7 8 9 10 11 12 13 14 15 16 17 18 19 20 21 22 23 24 25 26 27 28 29 30 31 32 33 34 35 36 37 38 39 40 41 42 43 44 45 46 47 48 49 50
000
ASUS45 KBOU 281807
RWRCO

WEATHER ROUNDUP FOR COLORADO
NATIONAL WEATHER SERVICE DENVER/BOULDER CO
1100 AM MST FRI NOV 28 2014

NOTE: "FAIR" INDICATES FEW OR NO CLOUDS BELOW 12000 FEET WITH NO
SIGNIFICANT WEATHER AND/OR OBSTRUCTIONS TO VISIBILITY.

COZ001>005-013-030-031-281900-
...NORTHWEST COLORADO...

CITY           SKY/WX    TMP DP  RH WIND       PRES   REMARKS
CRAIG          PTSUNNY   45  25  45 E8        30.11F
HAYDEN         PTSUNNY   34  23  64 E3        30.12F
MEEKER         MOSUNNY   53  19  26 CALM      30.13F
MOUNT WERNER   NOT AVBL
STEAMBOAT SPGS PTSUNNY   24  23  93 CALM      30.13F
WALDEN         CLOUDY    43  14  31 SW13G20   30.10F
$$

COZ006>008-011-281900-
...WEST CENTRAL VALLEYS...

CITY           SKY/WX    TMP DP  RH WIND       PRES   REMARKS
GRAND JUNCTION MOSUNNY   42  26  53 NW3       30.18F
MONTROSE       SUNNY     49  22  34 W3        30.19F
EAGLE          MOSUNNY   36  25  64 CALM      30.20F
RIFLE          SUNNY     39  26  59 CALM      30.19F
DELTA          SUNNY     45  25  46 CALM      30.18F
NUCLA          SUNNY     46  23  39 CALM      30.25F
$$

COZ017>023-064>068-281900-
...SOUTHWEST COLORADO...

CITY           SKY/WX    TMP DP  RH WIND       PRES   REMARKS
DURANGO        SUNNY     47  23  38 E5        30.27F
CORTEZ         SUNNY     51  20  29 CALM      30.24F
PAGOSA SPRINGS SUNNY     49  14  25 E3        30.29F
TELLURIDE      SUNNY     46  10  22 E5        30.32F
WOLF CREEK PAS SUNNY     34   5  29 MISG      30.39F
$$

COZ009-010-012-014-032>034-037-058>063-281900-
...CENTRAL COLORADO...

CITY           SKY/WX    TMP DP  RH WIND       PRES   REMARKS
ASPEN          SUNNY     45  15  30 SE3       30.18F
BUENA VISTA    SUNNY     56   0  10 W29G35    30.13F
COPPER MTN     SUNNY     37   0  20 W22G36    30.31F
BERTHOUD PASS  NOT AVBL
COTTONWOOD PAS SUNNY     50 -15   6 W35G63    30.17F
GUNNISON       SUNNY     25  18  74 CALM      30.34F
KREMMLING      SUNNY     50  10  20 NW3       30.16F
LEADVILLE      SUNNY     44   5  20 W9        30.23F
MONARCH PASS   SUNNY     32   3  29 W38G44    30.43S WCI  16
SALIDA         SUNNY     60   1   9 S18G25    30.19F
SUNLIGHT       SUNNY     39  19  45 SW3       30.30F
WILKERSON PASS MOSUNNY   43  -4  14 W12G29    30.22F
$$

COZ069>075-281900-
...SAN LUIS VALLEY/SANGRE DE CRISTO MOUNTAINS...

CITY           SKY/WX    TMP DP  RH WIND       PRES   REMARKS
ALAMOSA        SUNNY     44  16  32 N3        30.22F
LA VETA PASS   PTSUNNY   39   7  26 S14G33    30.18F
SAGUACHE       SUNNY     43  18  36 S3        30.25F
$$

COZ035-036-038>040-281900-
...NORTHERN COLORADO FRONT RANGE...

CITY           SKY/WX    TMP DP  RH WIND       PRES   REMARKS
DENVER INTL AP CLOUDY    63  16  16 SE6       29.92F
DMNS CITY PARK   N/A     56  19  22 S2G8      29.91F
AURORA         PTSUNNY   63  13  14 SE7       29.93F
FRONT RANGE AP NOT AVBL
ERIE MUNI ARPT CLOUDY    66   5   9 SW7       29.89F
BOULDER MUN AP CLOUDY    61  12  15 E7G18     29.88F
CENTENNIAL     CLOUDY    59  18  20 NE6       29.94F
BROOMFIELD     PTSUNNY   57  14  18 E8        29.92F
FORT COLLINS   CLOUDY    54  21  28 N7        29.91F
LONGMONT       CLOUDY    67  13  12 E10       29.89F
$$

COZ041-046-047-076>085-087-088-281900-
...PIKES PEAK/PALMER DIVIDE AND SOUTHERN FOOTHILLS...

CITY           SKY/WX    TMP DP  RH WIND       PRES   REMARKS
COLO. SPRINGS  CLOUDY    57  12  17 CALM      30.00F
A. F. ACADEMY  CLOUDY    55  11  17 S8        30.00F
ELLICOTT       NOT AVBL
FALCON         NOT AVBL
FORT CARSON    CLOUDY    55  16  21 NE5       29.98F
LIMON          PTSUNNY   69   9   9 W9        29.94F
MONUMENT HILL  CLOUDY    59   5  11 SW5       30.01F
TRINIDAD       CLOUDY    59  24  26 CALM      30.02F
$$

COZ042>045-048>051-090-091-281900-
...NORTHEAST COLORADO...

CITY           SKY/WX    TMP DP  RH WIND       PRES   REMARKS
GREELEY ARPT   CLOUDY    43  27  52 SE7       29.91F
AKRON          CLOUDY    57  24  28 W10       29.91F
BURLINGTON     MOSUNNY   73  15  11 W9        29.89F
WRAY           SUNNY     72  18  12 W12       29.86F
STERLING       CLOUDY    45  34  65 S10       29.87F
HOLYOKE        SUNNY     68  23  18 W9        29.84F
FORT MORGAN    CLOUDY    47  24  40 W6        29.91F
$$

COZ086-089-092>099-281900-
...SOUTHEAST COLORADO...

CITY           SKY/WX    TMP DP  RH WIND       PRES   REMARKS
PUEBLO         CLOUDY    56  23  27 W7        29.96F
LA JUNTA       CLOUDY    68  23  18 SW15      29.93F
LAMAR          MOSUNNY   70  19  14 W23       29.89F
SPRINGFIELD      N/A     75   9   8 SW14      29.93F
$$



USA.gov is the U.S. government's official web portal to all federal, state and local government web resources and services.